TimeEST,TemperatureF,Dew PointF,Humidity,Sea Level PressureIn,VisibilityMPH,Wind Direction,Wind SpeedMPH,Gust SpeedMPH,PrecipitationIn,Events,Conditions,WindDirDegrees,DateUTC
12:54 AM,61.0,55.0,81,30.17,10.0,SSW,9.2,-,N/A,,Overcast,210,2012-12-03 05:54:00
1:04 AM,60.8,55.4,82,30.18,10.0,SSW,9.2,-,N/A,,Overcast,210,2012-12-03 06:04:00
1:54 AM,61.0,54.0,78,30.17,10.0,SSW,10.4,-,N/A,,Overcast,210,2012-12-03 06:54:00
2:54 AM,60.1,54.0,80,30.17,10.0,South,8.1,-,N/A,,Overcast,190,2012-12-03 07:54:00
3:54 AM,57.9,52.0,81,30.18,10.0,South,10.4,-,N/A,,Partly Cloudy,190,2012-12-03 08:54:00
4:54 AM,57.9,51.1,78,30.17,10.0,South,11.5,-,N/A,,Overcast,190,2012-12-03 09:54:00
5:54 AM,57.9,51.1,78,30.17,10.0,South,10.4,-,N/A,,Mostly Cloudy,190,2012-12-03 10:54:00
6:54 AM,57.0,51.1,81,30.18,10.0,South,9.2,-,N/A,,Partly Cloudy,190,2012-12-03 11:54:00
7:54 AM,55.9,51.1,84,30.19,10.0,South,6.9,-,N/A,,Scattered Clouds,180,2012-12-03 12:54:00
8:54 AM,57.0,51.1,81,30.20,10.0,South,10.4,-,N/A,,Mostly Cloudy,180,2012-12-03 13:54:00
9:54 AM,61.0,53.1,75,30.21,10.0,SSW,10.4,-,N/A,,Partly Cloudy,200,2012-12-03 14:54:00
10:54 AM,64.9,54.0,68,30.20,10.0,SSW,17.3,23.0,N/A,,Partly Cloudy,210,2012-12-03 15:54:00
11:54 AM,66.9,55.9,68,30.17,10.0,SSW,15.0,23.0,N/A,,Clear,210,2012-12-03 16:54:00
12:54 PM,69.1,55.9,63,30.15,10.0,SW,13.8,21.9,N/A,,Clear,220,2012-12-03 17:54:00
1:54 PM,70.0,55.9,61,30.13,10.0,SSW,16.1,-,N/A,,Clear,210,2012-12-03 18:54:00
2:54 PM,70.0,55.9,61,30.13,10.0,SSW,12.7,-,N/A,,Clear,210,2012-12-03 19:54:00
3:54 PM,69.1,55.0,61,30.11,10.0,SSW,11.5,-,N/A,,Clear,200,2012-12-03 20:54:00
4:54 PM,66.9,54.0,63,30.12,10.0,SSW,9.2,-,N/A,,Clear,200,2012-12-03 21:54:00
5:54 PM,63.0,53.1,70,30.14,10.0,South,6.9,-,N/A,,Clear,180,2012-12-03 22:54:00
6:54 PM,62.1,52.0,70,30.14,10.0,SSE,8.1,-,N/A,,Partly Cloudy,160,2012-12-03 23:54:00
7:54 PM,60.1,52.0,75,30.14,10.0,South,9.2,-,N/A,,Clear,170,2012-12-04 00:54:00
8:54 PM,59.0,51.1,75,30.14,10.0,South,9.2,-,N/A,,Partly Cloudy,170,2012-12-04 01:54:00
9:54 PM,57.9,50.0,75,30.14,10.0,South,9.2,-,N/A,,Clear,170,2012-12-04 02:54:00
10:54 PM,57.9,48.9,72,30.14,10.0,South,10.4,-,N/A,,Clear,170,2012-12-04 03:54:00
11:54 PM,57.0,48.0,72,30.14,10.0,South,10.4,-,N/A,,Clear,180,2012-12-04 04:54:00